Timeline UpdatesTrip UpdatesNews PostsPvt PostsTravel TipsAdmin PostsConv PostsFollowed PostsChat RequestsBlog PostsPNR Posts

Disclaimer
Search
 
 
Fri Sep 19, 2014 05:17:17 ISTHomeTrainsΣChainsAtlasPNRForumGalleryNewsFAQTripsMembersLoginFeedback
No Recent News for this Train
Other Trains in the News **new
Latest...
.
Fri Sep 05, 2014 (07:42AM)
⇐ Return Journey: Train# 75720

75401⇒75719/Malda Town - Dinhata Passenger

Time-Table HAS CHANGED.
Sep 05 (7:44AM)
Change Departure Station:
Change Arrival Station:
Post a Train Travel TipPost a Train Travel Tip **new
Post a Comment/Question/Picture/VideoPost a Comment/Question/Picture/Video
Inaugural Run
Fri Aug 02, 2013
Pantry/Catering
✕ NO Pantry Car
✕ NO Catering
RSA - Rake Sharing
Rake/Coach Composition
Loco
News    PNR    Forum    Time-Table    Availability    Fare Chart    Map    Arr/Dep History    Trips    Gallery    ΣChains    X/O    Timeline    
Travel Time: 8h 38m    44 halts    Distance: 300 km    Avg Speed: 34 km/hr
Type: DEMU
Zone: NFR/Northeast Frontier
Departs @ 09:59
Platform# ???
SMTWTFS
Babhabgaon Halt/BAHN 
Arrives @ 18:37
Platform# 1
SMTWTFS
Cooch Behar/COB 

44 halts. 46 intermediate Stations between Babhabgaon Halt and Cooch Behar

Show ALL intermediate Stations  Show Old Time-Table

#CodeStation NameX/OArrivesAvgDepartsAvgHaltPFDay#KmSpeedElevZoneAddress
1MLDTMalda Town (5)  -08:10---1-64.83430mERDist - Malda, West Bengal
2OMLFOld Malda Junction (3)X  08:18 08:20-08:19 08:21-1m--1-59.16131mNFRDist - Malda, West Bengal
3ADFAdina (2)X  08:26 08:28-08:27 08:29-1m--1-51.95633mNFRNational Highway 34, West Bengal
4EKIEklakhi Junction (4)  08:34 08:36-08:35 08:37-1m--1-45.44133mNFRDistt. - Malda, West Bengal
5MBCMahananda Bridge (2)  08:39 08:41-08:40 08:42-1m--1-42.65728mNFRMahananda, West Bengal
6KMRJKumarganj (2)  08:44 08:46-08:45 08:47-1m--1-38.87228mNFRNational Highway 34, West Bengal
7SRPUSripur Halt (2)  08:49 08:51-08:50 08:52-1m--1-34.04927mNFRSripur, West Bengal
8SMSamsi (2)O  08:55 08:57-08:56 08:58-1m--1-30.01532mNFRdist - Malda, West Bengal
9MFZMalahar (2)  09:02 09:22-09:03 09:23-1m--1-24.07531mNFRNational Highway 81, West Bengal
10BKRDBhaluka Road F (2)  09:08 09:28-09:29-21 1m--1-17.74230mNFRBhaluka, West Bengal
11MQGMilangarh (2)  09:30 09:34-09:31 09:35-1m--1-14.24229mNFRMilangarh, West Bengal
12HCRHarischandrapur (2)X  09:38 09:42-09:39 09:43-1m--1-9.34531mNFRHarischandrapur, West Bengal
13KDPRKumedpur Junction (5)  09:47 09:52-09:48 09:53-1m--1-2.63233mNFRDist. - Malda, West Bengal
14BAHNBabhabgaon Halt (2)»  09:53 09:58-09:54 09:59-1m--10.07231mNFRBabhabgaon, West Bengal
15KWEKhurial (2)  09:58 10:03-09:59 10:04-1m--14.85733mNFRKhurial, Bihar
16KMPHKamalpur Halt (2)  10:02 10:07-10:03 10:08-1m--17.79632mNFRKamalpur, Bihar
17AZRAzamnagar Road (3)X  10:06 10:11-10:07 10:12-1m--112.55234mNFRAzamnagar, Bihar
18BWPBBhawanipur Bihar (2)  10:12 10:17-10:13 10:18-1m1116.84836mNFRBhawanipur, Bihar
19MFAMukuria Junction (2)X  10:18 10:23-10:19 10:24-1m--120.92832mNFRMukuria, Bihar
20BOEBarsoi Junction (3)X  10:25 10:33-10:27 10:35-2m--125.17337mNFRdist- katihar, Bihar
21SJGMSanjay Gram  10:34 10:42-10:35 10:43-1m--133.65134mNFRSanjay Gram, West Bengal
22SUDSudhani (2)  10:46 10:47-10:47 10:48-1m--137.07538mNFRState Highway 65, Bihar
23AHLAjharail  10:52 10:53-10:53 10:54-1m--143.23437mNFRNational Highway 34, West Bengal
24TETATelta (2)  10:58 10:59-10:59 11:00-1m--146.16140mNFRRupauli, Bihar
25DLKDalkhola (3)X  11:07 11:08-11:09 11:10-2m--154.26144mNFRDalkola, West Bengal
26SJKLSurja Kamal (2)  11:16 11:17-11:17 11:18-1m--161.23844mNFRNational Highway 31, West Bengal
27KKAKanki (3)XO  11:28 11:30-11:29 11:31-1m--168.9947mNFRKanki, West Bengal
28HWRHatwar (2)  11:49 12:09-11:50 12:10-1m--174.38446mNFRNational Highway 31, West Bengal
29KNEKishanGanj (3)X  12:23 12:16-12:25 12:17-2 1m--182.712352mNFRKishanganj, Bihar
30PJPPanjipara (3)O  12:33 12:21-12:34 12:23-1 2m--190.96655mNFRNational Highway 31, West Bengal
31GILGaisal (3)O  12:42 12:31-12:43 12:32-1m--199.64362mNFRNational Highway 31, West Bengal
32GEORGunjaria  12:49 12:40-12:50 12:41-1m--1105.38064mNFRNational Highway 31, West Bengal
33AUBAluabari Road (2)  12:57 12:47-12:59 12:48-2 1m--1113.3580mNFRDist - uttar Dinajpur, West Bengal
34DBQDhulabariX  13:04 12:53-13:05 12:55-1 2m--1118.12168mNFRKishanganj, Bihar
35MXJMangurjan  13:11 13:13-13:12 13:14-1m--1124.56169mNFRMangurjan, West Bengal
36TMHTin Mile Hat  13:18 13:20-13:19 13:21-1m--1130.74474mNFRTin Mile, West Bengal
37DMZDumdangiX  13:27 13:33-13:28 13:34-1m--1139.66886mNFRHaftia Rd, West Bengal
38CATChattar Hat (2)X  13:36 13:42-13:37 13:43-1m--1148.63691mNFRChattar, West Bengal
39NJBNijbariX  13:44 13:55-13:45 13:56-1m--1155.846104mNFRFulbari Ghoshpukur Bypass, West Bengal
40RNIRangapani (2)  13:56 14:05-13:57 14:06-1m--1162.623114mNFRSILIGURI Dist - Darjeeling, West Bengal
41NJPNew Jalpaiguri Junction (8)X  14:25-14:35-10m--1170.037114mNFRCity-Siliguri . Dist-Jalpaiguri, West Bengal
42ABFCAmbari Falakata (2)  14:45 14:49-14:46 14:50-1m--1178.756105mNFRdist - jalpaiguri 735201, West Bengal
43BLKBelakoba (2)X  14:55 15:00-14:56 15:01-1m11188.11699mNFRDist - jalpaiguri, West Bengal
44RQJRaninagar Jalpaiguri Junction (3)  15:30-15:31-1m--1195.83691mNFRDIST - Jalpaiguri, West Bengal
45JPEJalpaiguri Road (2)X  15:37 15:43-15:38 15:44-1m11203.05189mNFRdist - Jalpaiguri 735102, West Bengal
46NQHNew Domohani (2)X  15:45 15:53-15:46 15:54-1m11210.72384mNFRDist - Jalpaiguri, West Bengal
47NMXNew Maynaguri (2)  15:58 16:04-15:59 16:05-1m--1214.54886mNFRDist - Jalpaiguri, West Bengal
48BYXABetgara (2)  16:04 16:11-16:05 16:12-1m11219.48789mNFRDIST - Jalpaiguri, West Bengal
49ATMAltagram (2)X  16:13 16:18-16:14 16:19-1m--1228.04085mNFRDist - Jalpaiguri, West Bengal
50DQGDhupguri (2)  16:29-16:30-1m--1234.86875mNFRDist - Jalpaiguri, West Bengal
51KLGRKolai Gram (2)X  16:36-16:37-1m--1241.52375mNFRDist : Jalpaiguri, West Bengal
52SXXSalbari (2)  16:48 16:54-16:49 16:55-1m--1248.27769mNFRDist - jalpaiguri, West Bengal
53FLKFalakata (3)O  16:57 17:02-16:58 17:03-1m--1257.22867mNFRDist - Alipurduar, West Bengal
54GUZGumanihat (2)X  17:06 17:25-17:07 17:26-1m11267.61160mNFRDist : Cooch Behar, West Bengal
55GDXGhoksadanga (2)  17:35 17:54-17:36 17:55-1m--1272.87558mNFRDist : Cooch Behar, West Bengal
56SJRRSajherpar (2)X  17:47 18:01-17:48 18:02-1m--1280.45454mNFRDist : Cooch Behar, West Bengal
57PQZPundibari (1)  18:00 18:07-18:01 18:08-1m11284.83653mNFRDist - Coochbehar, West Bengal
58NCBNew Cooch Behar Junction (5)  18:25-18:30-5m--1295.03947mNFRDist : Cooch Behar-736101, West Bengal
59COBCooch Behar (1)•  18:45 18:37-18:50 18:38-5 1m11299.55146mNFRDist : Cooch Behar, West Bengal
60DWTDewan Hat (1)  19:02 18:50-19:03 18:51-1m11309.74441mNFRdist - Coachbehar, West Bengal
61VTGBhetaguri (1)  19:08 18:56-19:09 18:57-1m11313.43643mNFRDist : Cooch Behar, West Bengal
62DCHDinhatta College Halt (1)  19:20 19:08-19:21 19:09-1m11320.0738mNFRDinhata, West Bengal
63DHHDinhata (2)  19:30----1322.4-39mNFRDist - Coochbehar, West Bengal
Scroll to Top
Scroll to Bottom